Location: La Brionne
(46.1728°N, 1.7849°E)
Time: 19:44:14
(UTC+00:00)

USA 267 - Pass Details

Date: 01 November 2021
Orbit: 1101 x 1107 km, 123.0° (Epoch: 27 November)

Event Time Altitude Azimuth Distance (km) Brightness Sun altitude
Exits shadow 17:24:16 - 98° (E) 3,155 5.1 -8.5°
Reaches altitude 10° 17:24:48 10° 96° (E) 2,957 4.9 -8.5°
Maximum altitude 17:31:03 51° 23° (NNE) 1,362 3.6 -9.6°
Drops below altitude 10° 17:37:19 10° 311° (NW) 2,964 6.1 -10.7°
Sets 17:39:52 0° 306° (NW) 3,923 6.9 -11.1°
